Time,TemperatureF,DewpointF,PressureIn,WindDirection,WindDirectionDegrees,WindSpeedMPH,WindSpeedGustMPH,Humidity,HourlyPrecipIn,Conditions,Clouds,dailyrainin,SoftwareType,DateUTC
2013-08-10 00:02:00,79.0,69.0,-100.00,WSW,258,7.0,9.0,71,0.00,,,-99.99,,2013-08-10 04:02:00,
2013-08-10 00:12:00,79.0,69.0,-100.00,West,263,4.0,7.0,72,0.00,,,-99.99,,2013-08-10 04:12:00,
2013-08-10 00:22:00,78.0,70.0,-100.00,West,260,3.0,5.0,76,0.00,,,-99.99,,2013-08-10 04:22:00,
2013-08-10 00:32:00,78.0,70.0,-100.00,West,260,3.0,5.0,76,0.00,,,-99.99,,2013-08-10 04:32:00,
2013-08-10 00:43:00,77.0,70.0,-100.00,WSW,250,3.0,6.0,77,0.00,,,-99.99,,2013-08-10 04:43:00,
2013-08-10 00:53:00,77.0,70.0,-100.00,WSW,250,3.0,6.0,77,0.00,,,-99.99,,2013-08-10 04:53:00,
2013-08-10 01:02:00,77.0,70.0,-100.00,WSW,248,2.0,4.0,78,0.00,,,-99.99,,2013-08-10 05:02:00,
2013-08-10 01:11:00,77.0,70.0,-100.00,WSW,248,2.0,4.0,78,0.00,,,-99.99,,2013-08-10 05:11:00,
2013-08-10 01:32:00,77.0,70.0,-100.00,West,265,4.0,6.0,78,0.00,,,-99.99,,2013-08-10 05:32:00,
2013-08-10 01:43:00,77.0,70.0,-100.00,West,265,4.0,6.0,78,0.00,,,-99.99,,2013-08-10 05:43:00,
2013-08-10 01:52:00,77.0,70.0,-100.00,West,275,2.0,3.0,79,0.00,,,-99.99,,2013-08-10 05:52:00,
2013-08-10 02:02:00,77.0,70.0,-100.00,West,275,2.0,3.0,79,0.00,,,-99.99,,2013-08-10 06:02:00,
2013-08-10 02:32:00,77.0,71.0,-100.00,SW,234,1.0,2.0,81,0.00,,,-99.99,,2013-08-10 06:32:00,
2013-08-10 02:44:00,77.0,71.0,-100.00,WSW,246,1.0,2.0,82,0.00,,,-99.99,,2013-08-10 06:44:00,
2013-08-10 02:53:00,77.0,71.0,-100.00,WSW,246,1.0,2.0,82,0.00,,,-99.99,,2013-08-10 06:53:00,
2013-08-10 03:02:00,77.0,71.0,-100.00,WSW,246,1.0,2.0,82,0.00,,,-99.99,,2013-08-10 07:02:00,
2013-08-10 03:13:00,77.0,71.0,-100.00,WSW,246,1.0,2.0,82,0.00,,,-99.99,,2013-08-10 07:13:00,
2013-08-10 03:33:00,77.0,71.0,-100.00,West,272,5.0,7.0,81,0.00,,,-99.99,,2013-08-10 07:33:00,
2013-08-10 03:40:00,77.0,71.0,-100.00,WSW,254,4.0,7.0,82,0.00,,,-99.99,,2013-08-10 07:40:00,
2013-08-10 03:52:00,77.0,71.0,-100.00,WSW,257,3.0,4.0,81,0.00,,,-99.99,,2013-08-10 07:52:00,
2013-08-10 04:02:00,77.0,71.0,-100.00,WSW,254,4.0,7.0,82,0.00,,,-99.99,,2013-08-10 08:02:00,
2013-08-10 04:12:00,77.0,71.0,-100.00,WSW,254,4.0,7.0,82,0.00,,,-99.99,,2013-08-10 08:12:00,
2013-08-10 04:22:00,77.0,71.0,-100.00,WSW,254,4.0,7.0,82,0.00,,,-99.99,,2013-08-10 08:22:00,
2013-08-10 04:32:00,77.0,71.0,-100.00,WSW,254,4.0,7.0,82,0.00,,,-99.99,,2013-08-10 08:32:00,
2013-08-10 08:32:00,77.0,72.0,-100.00,West,270,5.0,7.0,84,0.00,,,-99.99,,2013-08-10 12:32:00,
2013-08-10 09:01:00,78.0,72.0,-100.00,West,272,3.0,5.0,82,0.00,,,-99.99,,2013-08-10 13:01:00,
2013-08-10 09:22:00,80.0,72.0,-100.00,WNW,288,4.0,6.0,77,0.00,,,-99.99,,2013-08-10 13:22:00,
2013-08-10 09:32:00,81.0,72.0,-100.00,WNW,282,4.0,6.0,72,0.00,,,-99.99,,2013-08-10 13:32:00,
2013-08-10 09:43:00,81.0,72.0,-100.00,WNW,282,4.0,6.0,72,0.00,,,-99.99,,2013-08-10 13:43:00,
2013-08-10 10:12:00,83.0,72.0,-100.00,NW,305,2.0,5.0,68,0.00,,,-99.99,,2013-08-10 14:12:00,
2013-08-10 10:33:00,83.0,71.0,-100.00,NNW,329,5.0,8.0,68,0.00,,,-99.99,,2013-08-10 14:33:00,
2013-08-10 10:43:00,84.0,72.0,-100.00,NNW,329,4.0,8.0,68,0.00,,,-99.99,,2013-08-10 14:43:00,
2013-08-10 10:53:00,84.0,72.0,-100.00,NNW,329,4.0,8.0,68,0.00,,,-99.99,,2013-08-10 14:53:00,
2013-08-10 11:02:00,84.0,72.0,-100.00,NNW,329,4.0,8.0,68,0.00,,,-99.99,,2013-08-10 15:02:00,
2013-08-10 11:12:00,85.0,72.0,-100.00,NW,308,4.0,5.0,66,0.00,,,-99.99,,2013-08-10 15:12:00,
2013-08-10 11:22:00,85.0,72.0,-100.00,NW,308,4.0,5.0,66,0.00,,,-99.99,,2013-08-10 15:22:00,
2013-08-10 11:34:00,85.0,72.0,-100.00,NW,308,4.0,5.0,66,0.00,,,-99.99,,2013-08-10 15:34:00,
2013-08-10 11:43:00,85.0,71.0,-100.00,West,272,6.0,7.0,65,0.00,,,-99.99,,2013-08-10 15:43:00,
2013-08-10 11:52:00,85.0,71.0,-100.00,West,272,6.0,7.0,65,0.00,,,-99.99,,2013-08-10 15:52:00,
2013-08-10 12:02:00,85.0,72.0,-100.00,West,281,5.0,9.0,65,0.00,,,-99.99,,2013-08-10 16:02:00,
2013-08-10 12:12:00,85.0,72.0,-100.00,West,281,5.0,9.0,65,0.00,,,-99.99,,2013-08-10 16:12:00,
2013-08-10 12:22:00,85.0,71.0,-100.00,West,271,6.0,9.0,64,0.00,,,-99.99,,2013-08-10 16:22:00,
2013-08-10 12:32:00,85.0,71.0,-100.00,West,271,6.0,9.0,64,0.00,,,-99.99,,2013-08-10 16:32:00,
2013-08-10 12:43:00,85.0,71.0,-100.00,West,271,6.0,9.0,64,0.00,,,-99.99,,2013-08-10 16:43:00,
2013-08-10 12:53:00,87.0,71.0,-100.00,West,275,6.0,8.0,58,0.00,,,-99.99,,2013-08-10 16:53:00,
2013-08-10 13:02:00,89.0,71.0,-100.00,WNW,294,4.0,7.0,55,0.00,,,-99.99,,2013-08-10 17:02:00,
2013-08-10 13:12:00,89.0,71.0,-100.00,WNW,294,4.0,7.0,55,0.00,,,-99.99,,2013-08-10 17:12:00,
2013-08-10 13:20:00,89.0,72.0,-100.00,WNW,287,4.0,6.0,57,0.00,,,-99.99,,2013-08-10 17:20:00,
2013-08-10 13:22:00,88.0,71.0,-100.00,NW,313,2.0,5.0,58,0.00,,,-99.99,,2013-08-10 17:22:00,
2013-08-10 13:33:00,88.0,71.0,-100.00,NW,313,2.0,5.0,58,0.00,,,-99.99,,2013-08-10 17:33:00,
2013-08-10 13:43:00,88.0,71.0,-100.00,NW,313,2.0,5.0,58,0.00,,,-99.99,,2013-08-10 17:43:00,
2013-08-10 13:52:00,89.0,72.0,-100.00,WNW,287,4.0,6.0,57,0.00,,,-99.99,,2013-08-10 17:52:00,
2013-08-10 14:01:00,89.0,72.0,-100.00,WNW,287,4.0,6.0,57,0.00,,,-99.99,,2013-08-10 18:01:00,
2013-08-10 14:11:00,89.0,72.0,-100.00,WNW,287,4.0,6.0,57,0.00,,,-99.99,,2013-08-10 18:11:00,
2013-08-10 14:32:00,90.0,70.0,-100.00,NNW,328,5.0,9.0,51,0.00,,,-99.99,,2013-08-10 18:32:00,
2013-08-10 14:44:00,91.0,68.0,-100.00,NW,320,4.0,8.0,47,0.00,,,-99.99,,2013-08-10 18:44:00,
2013-08-10 14:52:00,91.0,68.0,-100.00,NW,320,4.0,8.0,47,0.00,,,-99.99,,2013-08-10 18:52:00,
2013-08-10 15:02:00,92.0,70.0,-100.00,North,350,4.0,7.0,49,0.00,,,-99.99,,2013-08-10 19:02:00,
2013-08-10 15:12:00,92.0,70.0,-100.00,North,350,4.0,7.0,49,0.00,,,-99.99,,2013-08-10 19:12:00,
2013-08-10 15:22:00,92.0,70.0,-100.00,North,350,4.0,7.0,49,0.00,,,-99.99,,2013-08-10 19:22:00,
2013-08-10 15:33:00,91.0,69.0,-100.00,West,270,6.0,8.0,49,0.00,,,-99.99,,2013-08-10 19:33:00,
2013-08-10 15:44:00,93.0,71.0,-100.00,West,278,3.0,6.0,49,0.00,,,-99.99,,2013-08-10 19:44:00,
2013-08-10 15:53:00,93.0,71.0,-100.00,West,278,3.0,6.0,49,0.00,,,-99.99,,2013-08-10 19:53:00,
2013-08-10 16:02:00,91.0,70.0,-100.00,NW,326,5.0,9.0,50,0.00,,,-99.99,,2013-08-10 20:02:00,
2013-08-10 16:12:00,91.0,70.0,-100.00,NW,326,5.0,9.0,50,0.00,,,-99.99,,2013-08-10 20:12:00,
2013-08-10 16:22:00,91.0,70.0,-100.00,NW,326,5.0,9.0,50,0.00,,,-99.99,,2013-08-10 20:22:00,
2013-08-10 16:33:00,91.0,70.0,-100.00,NNW,340,6.0,9.0,51,0.00,,,-99.99,,2013-08-10 20:33:00,
2013-08-10 16:43:00,90.0,71.0,-100.00,NW,311,2.0,4.0,53,0.00,,,-99.99,,2013-08-10 20:43:00,
2013-08-10 16:53:00,90.0,71.0,-100.00,NW,311,2.0,4.0,53,0.00,,,-99.99,,2013-08-10 20:53:00,
2013-08-10 17:02:00,89.0,72.0,-100.00,NW,313,3.0,4.0,56,0.00,,,-99.99,,2013-08-10 21:02:00,
2013-08-10 17:12:00,89.0,72.0,-100.00,NW,313,3.0,4.0,56,0.00,,,-99.99,,2013-08-10 21:12:00,
2013-08-10 17:22:00,89.0,72.0,-100.00,NW,313,3.0,4.0,56,0.00,,,-99.99,,2013-08-10 21:22:00,
2013-08-10 17:32:00,89.0,72.0,-100.00,NW,313,3.0,4.0,56,0.00,,,-99.99,,2013-08-10 21:32:00,
2013-08-10 18:32:00,74.0,72.0,-100.00,WSW,246,0.0,2.0,93,0.00,,,-99.99,,2013-08-10 22:32:00,
2013-08-10 18:43:00,75.0,74.0,-100.00,SSW,206,1.0,1.0,94,0.00,,,-99.99,,2013-08-10 22:43:00,
2013-08-10 18:53:00,75.0,74.0,-100.00,SSW,206,1.0,1.0,94,0.00,,,-99.99,,2013-08-10 22:53:00,
2013-08-10 19:02:00,76.0,74.0,-100.00,WSW,247,3.0,6.0,94,0.00,,,-99.99,,2013-08-10 23:02:00,
2013-08-10 19:12:00,76.0,74.0,-100.00,WSW,247,3.0,6.0,94,0.00,,,-99.99,,2013-08-10 23:12:00,
2013-08-10 19:22:00,76.0,74.0,-100.00,WSW,247,3.0,6.0,94,0.00,,,-99.99,,2013-08-10 23:22:00,
2013-08-10 19:32:00,77.0,75.0,-100.00,SSW,202,0.0,1.0,93,0.00,,,-99.99,,2013-08-10 23:32:00,
2013-08-10 19:43:00,77.0,75.0,-100.00,SSW,202,0.0,1.0,93,0.00,,,-99.99,,2013-08-10 23:43:00,
2013-08-10 19:53:00,77.0,75.0,-100.00,SSE,162,0.0,1.0,93,0.00,,,-99.99,,2013-08-10 23:53:00,
2013-08-10 20:02:00,77.0,75.0,-100.00,SSE,162,0.0,1.0,93,0.00,,,-99.99,,2013-08-11 00:02:00,
2013-08-10 20:11:00,77.0,75.0,-100.00,ESE,112,1.0,2.0,93,0.00,,,-99.99,,2013-08-11 00:11:00,
2013-08-10 20:22:00,77.0,75.0,-100.00,ESE,112,1.0,2.0,93,0.00,,,-99.99,,2013-08-11 00:22:00,
2013-08-10 20:32:00,76.0,74.0,-100.00,SW,219,1.0,2.0,94,0.00,,,-99.99,,2013-08-11 00:32:00,
2013-08-10 20:42:00,76.0,74.0,-100.00,SW,217,0.0,1.0,94,0.00,,,-99.99,,2013-08-11 00:42:00,
2013-08-10 20:52:00,76.0,74.0,-100.00,SW,217,0.0,1.0,94,0.00,,,-99.99,,2013-08-11 00:52:00,
2013-08-10 21:02:00,76.0,74.0,-100.00,WSW,254,1.0,2.0,94,0.00,,,-99.99,,2013-08-11 01:02:00,
2013-08-10 21:12:00,76.0,74.0,-100.00,WSW,254,1.0,2.0,94,0.00,,,-99.99,,2013-08-11 01:12:00,
2013-08-10 21:22:00,76.0,74.0,-100.00,WSW,254,0.0,1.0,95,0.00,,,-99.99,,2013-08-11 01:22:00,
2013-08-10 21:32:00,76.0,74.0,-100.00,WSW,254,0.0,1.0,95,0.00,,,-99.99,,2013-08-11 01:32:00,
2013-08-10 21:43:00,76.0,74.0,-100.00,SSW,199,0.0,0.0,95,0.00,,,-99.99,,2013-08-11 01:43:00,
2013-08-10 21:54:00,76.0,74.0,-100.00,SSW,199,0.0,0.0,95,0.00,,,-99.99,,2013-08-11 01:54:00,
2013-08-10 22:02:00,76.0,74.0,-100.00,WSW,247,0.0,0.0,95,0.00,,,-99.99,,2013-08-11 02:02:00,
2013-08-10 22:12:00,76.0,74.0,-100.00,WSW,247,0.0,0.0,95,0.00,,,-99.99,,2013-08-11 02:12:00,
2013-08-10 22:22:00,76.0,74.0,-100.00,WSW,247,0.0,0.0,95,0.00,,,-99.99,,2013-08-11 02:22:00,
2013-08-10 22:32:00,76.0,74.0,-100.00,WSW,244,0.0,0.0,95,0.00,,,-99.99,,2013-08-11 02:32:00,
2013-08-10 22:43:00,76.0,74.0,-100.00,WSW,244,0.0,0.0,95,0.00,,,-99.99,,2013-08-11 02:43:00,
2013-08-10 22:58:00,76.0,74.0,-100.00,WSW,246,1.0,1.0,95,0.00,,,-99.99,,2013-08-11 02:58:00,
2013-08-10 23:07:00,76.0,74.0,-100.00,WSW,246,1.0,1.0,95,0.00,,,-99.99,,2013-08-11 03:07:00,
2013-08-10 23:18:00,76.0,74.0,-100.00,WSW,246,1.0,1.0,95,0.00,,,-99.99,,2013-08-11 03:18:00,
2013-08-10 23:36:00,75.0,74.0,-100.00,SW,220,0.0,1.0,95,0.00,,,-99.99,,2013-08-11 03:36:00,
2013-08-10 23:46:00,75.0,73.0,-100.00,SW,233,1.0,2.0,95,0.00,,,-99.99,,2013-08-11 03:46:00,
2013-08-10 23:58:00,75.0,73.0,-100.00,SW,233,1.0,2.0,95,0.00,,,-99.99,,2013-08-11 03:58:00,